Погода в Кайеркане

Россия / Красноярский край     69°21′08″N   87°45′11″E
В апреле 2022 года жителям России запретили посещать сайт meteo.paraplan.net по решению Генеральной прокуратуры. Аудитория сайта уменьшилась в 10 раз. Владельцы сайта не видят смысла в поддержке погодного сервера в таких условиях. Сайт будет закрыт в октябре.
темп.,
°C
ветер,
м/с
пор.,
м/с
влажн.,
%
обл.,
%
осадки,
мм/ч
давл.,
гПа
погр.,
м
25 сентября, вс
вс2501:00−3с5895100 0.5 1013630
04:00−3ссв4795100 0.3 1013361
07:00−4с249798 0.2 101492
10:00−3ссв569196 0.0 1014406
13:00−2ссв6787100 0.1 1014494
16:00−3с798599 0.0 1014440
19:00−5ссв610877 0.0 1015251
22:00−8ссв22935 0.0 101528
26 сентября, пн
пн2601:00−9св12945 0.0 101619
04:00−9св129238 0.0 101618
07:00−9всв1189100 0.0 101716
10:00−6в127934 0.0 101747
13:00−3всв126887 0.0 1017145
16:00−3всв2275100 0.0 101849
19:00−7всв118054 0.0 101910
22:00−7в118559 0.0 101916
27 сентября, вт
вт2701:00−9вюв22875 0.0 102010
04:00−9вюв22885 0.0 102110
07:00−10вюв22865 0.0 102210
10:00−6в11825 0.0 102222
13:00−3св11715 0.0 1023125
16:00−3ссв22805 0.0 102319
19:00−7в1185100 0.0 102310
22:00−7вюв1185100 0.0 102410
28 сентября, ср
ср2801:00−7вюв228698 0.0 102411
04:00−8вюв2289100 0.0 102511
07:00−9вюв2288100 0.0 102510
10:00−6в1181100 0.0 102629
13:00−3св117063 0.0 1026106
16:00−4с118489 0.0 102721
19:00−7с129552 0.0 102711
22:00−4с27100100 0.0 1027246
29 сентября, чт
чт2901:00−3ссз2499100 0.1 1026143
04:00−3ссз2698100 0.2 1026232
07:00−3ссз3898100 0.7 1025379
10:00−2ссз3796100 0.3 1025415
13:00−1ссз5795100 0.7 1024596
16:00−1ссз4997100 0.3 1024645
19:00−1сз4999100 1.1 1024436
22:00−1ссз4999100 0.8 1024461